This demonstration page uses our WeatherBlox Daily Observations layout. Learn more.

39.92423, -83.80882

Hourly Observations for June 25, 2020

Temp ( °F °C ) Dew Point ( °F °C ) Humidity (%) Winds ( mph kmh ) Pressure ( in mb ) Visibility ( mi km ) Precip ( " mm )
12:56 am 00:56 Partly Cloudy 61 16.1 59 15 93 93 N 6 9 29.93 1014 10 16.0934 0.03 0.762
1:56 am 01:56 Clear 60 15.6 59 15 96 96 Calm 29.93 1014 10 16.0934 0.01 0.254
2:56 am 02:56 Clear 59 15 58 14.4 96 96 Calm 29.93 1014 10 16.0934 0.01 0.254
3:56 am 03:56 Mostly Cloudy 60 15.6 59 15 96 96 SSW 5 7 29.93 1014 10 16.0934 0 0
4:56 am 04:56 Clear 58 14.4 58 14.4 100 100 Calm 29.95 1014 10 16.0934 0 0
5:56 am 05:56 Clear 57 13.9 57 13.9 100 100 Calm 29.96 1015 10 16.0934 0.09 2.286
6:56 am 06:56 Sunny 60 15.6 60 15.6 100 100 undefined N/A 29.98 1015 10 16.0934 0 0
7:56 am 07:56 Sunny 65 18.3 61 16.1 87 87 SW 7 11 29.98 1015 10 16.0934 0 0
8:56 am 08:56 Sunny 70 21.1 60 15.6 71 71 SW 9 15 29.99 1016 10 16.0934 0.12 3.048
9:56 am 09:56 Mostly Cloudy 73 22.8 59 15 62 62 WSW 8 13 30 1016 10 16.0934 0.01 0.254
10:56 am 10:56 Sunny 77 25 59 15 54 54 W 10 17 30.01 1016 10 16.0934 0.01 0.254
11:56 am 11:56 Mostly Cloudy 79 26.1 58 14.4 49 49 WSW 16 26 30.01 1016 10 16.0934 0.03 0.762
12:56 pm 12:56 Partly Cloudy 80 26.7 57 13.9 45 45 W 16 26 30.02 1017 10 16.0934 0.08 2.032
1:56 pm 13:56 Mostly Cloudy 81 27.2 54 12.2 39 39 undefined N/A 30.01 1016 10 16.0934 0.08 2.032
2:56 pm 14:56 Mostly Cloudy 82 27.8 53 11.7 37 37 WNW 14 22 30.01 1016 10 16.0934 0.21 5.334
3:56 pm 15:56 Cloudy 83 28.3 54 12.2 37 37 W 17 28 29.99 1016 10 16.0934 0.09 2.286
4:56 pm 16:56 Mostly Cloudy 82 27.8 55 12.8 40 40 W 10 17 29.99 1016 10 16.0934 0 0
5:56 pm 17:56 Cloudy with Light Rain 77 25 60 15.6 56 56 WSW 7 11 30 1016 10 16.0934 0.001 0.001
6:56 pm 18:56 Sunny 80 26.7 55 12.8 42 42 W 15 24 29.99 1016 10 16.0934 0.001 0.001
7:56 pm 19:56 Mostly Sunny 79 26.1 57 13.9 47 47 W 8 13 29.99 1016 10 16.0934 0 0
8:56 pm 20:56 Sunny 74 23.3 58 14.4 57 57 W 6 9 30 1016 10 16.0934 0 0
9:56 pm 21:56 Mostly Clear 72 22.2 57 13.9 59 59 Calm 30.01 1016 10 16.0934 0 0
10:56 pm 22:56 Clear 67 19.4 59 15 76 76 Calm 30.03 1017 10 16.0934 0 0
11:56 pm 23:56 Clear 66 18.9 58 14.4 75 75 SSW 5 7 30.04 1017 10 16.0934 0.07 1.778

Powered by AerisWeather